Weather History for Windsor Locks, CT

Change the Weather History Date:

Tuesday, January 31, 2012

  Actual Average Record
Temperature  
Mean Temperature 43 °F 27 °F  
Max Temperature 56 °F 35 °F 61 °F (2013)
Min Temperature 29 °F 18 °F -12 °F (1948)
Degree Days  
Heating Degree Days 22 38  
Month to date heating degree days 1028 1203  
Since 1 July heating degree days 2835 3450  
Cooling Degree Days 0 0  
Month to date cooling degree days 0 0  
Year to date cooling degree days 0 0  
Moisture  
Dew Point 23 °F    
Average Humidity 49    
Maximum Humidity 69    
Minimum Humidity 29    
Precipitation  
Precipitation 0.00 in 0.11 in 1.61 in (1914)
Month to date precipitation 2.96 3.23  
Year to date precipitation 2.96 3.23  
Snow  
Snow 0.00 in 0.40 in 5.50 in (1931)
Month to date snowfall 6.8 12.3  
Since 1 July snowfall 19.1 21.7  
Snow Depth -    
Sea Level Pressure  
Sea Level Pressure 30.08 in    
Wind  
Wind Speed 5 mph (South)    
Max Wind Speed 17 mph    
Max Gust Speed 21 mph    
Visibility 10 miles    
Events      
T = Trace of Precipitation, MM = Missing Value Source: NWS Daily Summary

Daily Weather History Graph

Daily Weather History Graph

Search for Another Location

Airport:

Trip Planner

Search our weather history database for the weather conditions in past years. The results will help you decide how hot, cold, wet, or windy it might be!

Date:

Astronomy

Jan. 31, 2012 Rise Set
Actual Time 7:04 AM EST 5:03 PM EST
Civil Twilight 6:35 AM EST 5:33 PM EST
Nautical Twilight 6:01 AM EST 6:07 PM EST
Astronomical Twilight 5:28 AM EST 6:39 PM EST
Moon 10:51 AM EST (1/31) 12:50 AM EST (1/31)
Length of Visible Light 10h 58m
Length of Day
9h 58m
First Quarter, 55% of the Moon is Illuminated
Jan 31
First Quarter
Feb 7
Full
Feb 14
Last Quarter
Feb 21
New
Feb 29
First Quarter

Hourly Weather History & Observations

Time (EST) Temp. Windchill Dew Point Humidity Pressure Visibility Wind Dir Wind Speed Gust Speed Precip Events Conditions
12:51 AM 28.9 °F 23.9 °F 19.0 °F 67% 30.26 in 10.0 mi East 4.6 mph - N/A   Overcast
1:51 AM 28.9 °F - 19.0 °F 67% 30.24 in 10.0 mi Calm Calm - N/A   Overcast
2:51 AM 28.9 °F - 19.9 °F 69% 30.21 in 10.0 mi Calm Calm - N/A   Overcast
3:51 AM 30.0 °F - 18.0 °F 61% 30.19 in 10.0 mi Calm Calm - N/A   Overcast
4:51 AM 30.0 °F - 19.0 °F 64% 30.17 in 10.0 mi Calm Calm - N/A   Overcast
5:51 AM 30.9 °F - 19.9 °F 64% 30.17 in 10.0 mi Calm Calm - N/A   Mostly Cloudy
6:51 AM 30.9 °F - 19.9 °F 64% 30.15 in 10.0 mi Calm Calm - N/A   Mostly Cloudy
7:51 AM 30.9 °F - 21.0 °F 67% 30.14 in 10.0 mi Calm Calm - N/A   Mostly Cloudy
8:51 AM 33.1 °F - 21.0 °F 61% 30.13 in 10.0 mi Calm Calm - N/A   Mostly Cloudy
9:51 AM 39.0 °F 34.8 °F 21.9 °F 50% 30.12 in 10.0 mi South 5.8 mph - N/A   Scattered Clouds
10:51 AM 44.1 °F 40.8 °F 21.9 °F 42% 30.09 in 10.0 mi SSE 5.8 mph - N/A   Mostly Cloudy
11:51 AM 48.0 °F - 21.0 °F 34% 30.06 in 10.0 mi South 10.4 mph - N/A   Mostly Cloudy
12:51 PM 51.1 °F - 21.9 °F 32% 30.03 in 10.0 mi South 12.7 mph - N/A   Scattered Clouds
1:51 PM 54.0 °F - 23.0 °F 30% 30.00 in 10.0 mi South 12.7 mph - N/A   Partly Cloudy
2:51 PM 55.0 °F - 24.1 °F 30% 29.99 in 10.0 mi SSW 9.2 mph - N/A   Scattered Clouds
3:51 PM 55.0 °F - 25.0 °F 31% 29.99 in 10.0 mi SSW 11.5 mph 20.7 mph N/A   Scattered Clouds
4:51 PM 52.0 °F - 25.0 °F 35% 29.98 in 10.0 mi South 5.8 mph - N/A   Scattered Clouds
5:51 PM 52.0 °F - 25.0 °F 35% 30.00 in 10.0 mi SSE 4.6 mph - N/A   Scattered Clouds
6:51 PM 46.0 °F 42.5 °F 27.0 °F 47% 30.02 in 10.0 mi SSE 6.9 mph - N/A   Partly Cloudy
7:51 PM 45.0 °F 41.2 °F 27.0 °F 49% 30.03 in 10.0 mi SE 6.9 mph - N/A   Scattered Clouds
8:51 PM 42.1 °F 36.6 °F 28.9 °F 60% 30.02 in 10.0 mi SSE 9.2 mph - N/A   Mostly Cloudy
9:51 PM 45.0 °F 40.6 °F 30.9 °F 58% 30.00 in 10.0 mi South 8.1 mph - N/A   Mostly Cloudy
10:51 PM 42.1 °F 37.7 °F 30.9 °F 65% 29.99 in 10.0 mi SSE 6.9 mph - N/A   Mostly Cloudy
11:51 PM 43.0 °F 38.8 °F 32.0 °F 65% 29.98 in 10.0 mi SSE 6.9 mph - N/A   Overcast